Probability
0 0 0 0 0 0 0 0 0 0 0 0 0 0 0 0 0 0 0 0 0 0 1 2 3 2 1 0 0 0 1 2 3 2 2 4 4 4 4 4 3 3 3
0 0 0 0 0 0 0 0 0 0 0 0 0 0 0 0 0 0 0 0 0 0 1 2 3 3 1 0 0 0 0 1 2 2 2 4 5 4 4 3 3 3 3
0 0 0 0 0 0 0 0 0 0 0 0 0 0 0 0 0 0 0 0 0 0 1 2 3 3 2 1 0 0 0 0 1 1 2 4 5 5 4 3 3 3 3
0 0 0 0 0 0 0 0 0 0 0 0 0 0 0 0 0 0 0 0 0 0 0 1 1 2 2 1 0 0 0 0 0 1 2 3 4 5 4 3 3 3 3
0 0 0 0 0 0 0 0 0 0 0 0 0 0 0 0 0 0 0 0 0 0 0 0 0 1 1 1 0 0 0 0 0 0 1 2 2 3 3 3 3 3 3
0 0 0 0 0 0 0 0 0 0 0 0 0 0 0 0 0 0 0 0 0 0 0 0 0 0 0 0 0 0 0 0 0 0 0 1 1 1 1 2 3 3 3
0 0 0 0 0 0 0 0 0 0 0 0 0 0 0 0 0 0 0 0 0 0 0 0 0 0 0 0 0 0 0 0 0 0 0 0 1 1 1 1 2 3 3
0 0 0 0 0 0 0 0 0 0 0 0 0 0 0 0 0 0 0 0 0 0 0 0 0 0 0 0 0 0 0 0 0 0 0 0 1 1 1 0 1 2 3
0 0 0 0 0 0 0 0 0 0 0 0 0 0 0 0 0 0 0 0 0 0 0 0 0 0 0 0 0 0 0 0 0 0 0 0 0 0 0 0 0 1 2
0 0 0 0 0 0 0 0 0 0 0 0 0 0 0 0 0 0 0 0 0 0 0 0 0 0 0 0 0 0 0 0 0 0 1 1 1 0 0 0 0 0 1
0 0 0 0 0 0 0 0 0 0 0 0 0 0 0 0 0 0 0 0 0 0 0 0 0 0 0 0 0 0 0 0 0 0 1 2 1 0 0 0 0 0 0
0 0 0 0 0 0 0 0 0 0 0 0 0 0 0 0 0 0 0 0 0 0 0 0 0 0 0 0 0 0 0 0 0 0 1 1 1 0 0 0 0 0 0
0 0 0 0 0 0 0 0 0 0 0 0 0 0 0 0 0 0 0 0 0 0 0 0 0 0 0 0 0 0 0 0 0 0 0 0 0 0 0 0 0 0 0
0 0 0 0 0 0 0 0 0 0 0 0 0 0 0 0 0 0 0 0 0 0 0 0 0 0 0 0 0 0 0 0 0 0 0 0 0 0 0 0 0 0 0
0 0 0 0 0 0 0 0 0 0 0 0 0 0 0 0 0 0 0 0 0 0 0 0 0 0 0 0 0 0 0 0 0 0 0 0 0 0 0 0 0 0 0
0 0 0 0 0 0 0 0 0 0 0 0 0 0 0 0 0 0 0 0 0 0 0 0 0 0 0 0 0 0 0 0 0 0 0 0 0 0 0 0 0 0 0
0 0 0 0 0 0 0 0 0 0 0 0 0 0 0 0 0 0 0 0 0 0 0 0 0 0 0 0 0 0 0 0 0 0 0 0 0 0 0 0 0 0 0
0 0 0 0 0 0 0 0 0 0 0 0 0 0 0 0 0 0 0 0 0 0 0 0 0 0 0 0 0 0 0 0 0 0 0 0 0 0 0 0 0 0 0
0 0 0 0 0 0 0 0 0 0 0 0 0 0 0 0 0 0 0 0 0 0 0 0 0 0 0 0 0 0 0 0 0 0 0 0 0 0 0 0 0 0 0
0 0 0 0 0 0 0 0 0 0 0 0 0 0 0 0 0 0 0 0 0 0 0 0 0 0 0 0 0 0 0 0 0 0 0 0 0 0 0 0 0 0 0
0 0 0 0 0 0 0 0 0 0 0 0 0 0 0 0 0 0 0 0 0 0 0 0 0 0 0 0 0 0 0 0 0 0 0 0 0 0 0 0 0 0 0
0 0 0 0 0 0 0 0 0 0 0 0 0 0 0 0 0 0 0 0 0 0 0 0 0 0 0 0 0 0 0 0 0 0 0 0 0 0 0 0 0 0 0
0 0 0 0 0 0 0 0 0 0 0 0 0 0 0 0 0 0 0 0 0 0 0 0 0 0 0 0 0 0 0 0 0 0 0 0 0 0 0 0 0 0 0
0 0 0 0 0 0 0 0 0 0 0 0 0 0 0 0 0 0 0 0 0 0 0 0 0 0 0 0 0 0 0 0 0 0 0 0 0 0 0 0 0 0 0
0 0 0 0 0 0 0 0 0 0 0 0 0 0 0 0 0 0 0 0 0 0 0 0 0 0 0 0 0 0 0 0 0 0 0 0 0 0 0 0 0 0 0
0 0 0 0 0 0 0 0 0 0 0 0 0 0 0 0 0 0 0 0 0 0 0 0 0 0 0 0 0 0 0 0 0 0 0 0 0 0 0 0 0 0 0
Wind_Speed
1 1 1 0 0 0 0 1 1 1 1 1 1 2 2 2 3 3 1 2 4 5 6 6 6 6 6 6 6 7 7 7 7 6 6 6 7 8 8 8 8 8 8
2 1 1 1 1 1 1 1 1 1 1 1 2 2 3 3 3 3 3 2 3 4 5 6 6 6 6 7 7 8 8 8 8 8 7 7 8 9 9 9 9 9 9
2 2 1 1 1 1 1 1 1 1 1 2 2 3 3 3 3 3 3 3 2 3 4 5 6 6 7 7 8 8 9 9 9 9 9 9 9 9 9 10 10 10 10
3 2 2 2 1 2 2 2 1 1 2 2 2 2 3 3 4 4 3 3 3 3 3 4 6 7 7 8 9 9 10 10 10 10 10 9 10 10 10 10 10 10 10
4 3 2 2 2 2 2 2 2 2 2 2 3 3 3 3 3 3 4 4 4 3 3 3 4 6 7 8 9 9 10 10 11 11 11 10 10 10 10 10 10 10 10
4 4 3 3 3 2 2 2 2 2 2 2 2 3 3 3 3 3 4 3 3 3 4 4 3 3 5 7 8 9 10 10 10 11 10 10 10 10 10 10 11 11 11
4 4 3 3 3 3 3 3 2 2 2 1 2 3 3 3 3 3 3 3 3 3 4 3 3 3 3 5 7 9 10 10 11 11 11 11 11 11 11 11 11 12 12
4 4 4 3 3 3 3 3 3 2 2 1 2 3 3 3 2 2 2 3 3 3 3 3 3 4 4 3 4 8 10 11 11 11 12 12 12 11 11 11 12 12 13
4 4 5 4 4 4 4 4 4 3 2 2 2 3 3 3 3 2 3 3 3 3 3 3 4 4 5 4 4 6 9 11 11 12 12 12 12 12 12 12 13 13 14
4 4 5 5 5 4 4 4 4 4 3 3 2 3 4 3 3 3 2 3 4 4 4 4 4 4 5 4 4 7 9 10 11 12 12 12 12 13 14 14 14 14 14
3 3 4 4 5 4 5 5 5 5 4 4 3 2 3 4 5 5 5 4 4 4 4 5 5 4 5 5 4 5 9 10 11 11 11 11 12 13 14 15 15 15 15
2 3 4 4 4 4 5 5 5 5 4 4 4 4 3 3 4 4 6 6 6 5 5 5 5 4 4 4 5 6 9 11 11 10 11 11 12 13 14 14 15 15 15
2 3 3 4 4 4 4 4 4 4 5 5 5 4 4 4 3 4 5 6 6 5 5 4 4 4 4 4 4 5 8 9 10 10 11 11 12 12 13 13 14 15 15
3 3 3 4 4 4 4 4 4 4 4 5 5 5 4 4 4 4 4 5 6 5 5 5 3 4 4 4 5 7 7 8 10 11 12 12 12 12 13 13 14 14 14
2 3 3 4 4 4 4 4 3 4 4 5 5 5 5 4 4 4 4 5 5 6 6 4 3 3 4 4 5 6 7 7 10 11 11 12 12 12 13 13 14 15 15
3 3 3 4 4 4 4 4 4 4 4 4 4 5 5 4 4 4 5 5 6 6 7 4 4 5 5 5 6 7 7 8 10 10 11 12 12 12 13 13 14 15 14
3 3 3 3 4 4 4 4 4 4 5 5 5 5 6 5 4 4 4 5 5 6 8 6 5 5 7 7 6 6 6 7 6 9 11 12 12 12 13 13 14 14 15
3 3 3 4 4 4 4 5 5 5 5 6 6 6 6 5 6 5 5 6 6 6 7 8 6 5 7 7 7 7 6 6 7 9 11 12 13 12 13 13 13 14 13
3 3 3 4 4 4 4 5 5 5 6 6 6 7 6 6 6 5 6 6 5 5 6 7 7 5 5 5 6 6 7 6 7 7 9 11 12 13 13 13 13 13 12
3 3 3 4 4 4 5 5 5 5 6 6 6 7 7 7 8 7 6 7 6 6 6 6 7 6 5 5 4 5 6 6 6 6 7 8 10 12 13 12 12 11 11
3 3 3 3 4 4 4 5 5 5 6 6 6 7 7 8 9 7 6 6 6 6 6 6 7 6 6 4 4 4 6 6 6 5 5 5 6 6 7 9 10 11 11
3 3 3 4 4 4 5 6 5 6 6 7 7 7 7 7 8 10 11 10 9 8 8 7 7 7 7 6 5 5 5 5 6 3 5 6 5 6 6 6 8 11 12
3 4 4 4 5 6 6 7 7 6 6 6 7 6 5 5 6 7 8 10 10 11 11 8 9 9 8 6 5 6 6 6 7 4 4 7 5 7 6 6 10 11 11
4 4 4 5 5 6 6 7 7 6 6 6 6 6 6 6 5 6 6 7 7 8 8 8 9 8 7 5 5 6 6 7 7 5 4 6 5 6 5 6 9 10 11
4 4 4 5 5 5 6 6 6 5 5 6 5 5 6 6 7 7 6 7 8 7 7 9 10 9 9 8 6 4 4 5 6 5 3 4 4 5 5 6 6 8 11
4 4 4 4 5 6 6 6 5 4 5 5 5 5 6 8 8 8 7 7 8 7 6 6 7 8 7 7 7 6 5 5 5 5 3 3 4 3 5 3 4 4 6
Wind_Direction
201 199 188 183 226 277 308 308 299 310 297 289 287 292 297 298 292 290 295 341 312 298 296 298 300 302 306 306 306 304 300 298 298 294 293 290 289 287 288 289 289 289 291
209 204 212 223 238 233 269 283 290 279 281 281 280 285 285 286 284 285 285 301 320 309 301 300 304 307 308 307 306 303 299 297 296 293 291 290 287 284 286 284 284 285 284
208 206 221 225 241 249 251 249 275 262 269 273 272 275 275 275 274 276 281 284 290 305 303 298 298 300 304 306 305 304 303 301 300 298 293 290 288 287 288 285 282 282 282
208 207 217 231 229 223 227 235 248 265 263 273 278 280 277 271 266 267 270 273 280 281 290 303 302 300 300 299 299 300 301 300 299 299 295 289 287 287 286 284 284 281 279
210 212 215 222 224 225 226 233 248 268 270 277 287 288 280 269 265 262 263 266 270 275 280 289 296 303 302 299 297 295 295 298 299 298 298 293 289 289 289 287 284 283 282
211 213 214 214 219 220 221 223 243 265 271 283 287 284 280 271 260 259 263 263 264 271 277 286 281 284 295 301 300 298 297 298 299 301 300 296 292 290 288 287 281 278 279
209 212 216 209 215 223 229 225 232 252 264 285 280 284 276 256 249 262 266 270 274 283 287 291 297 298 293 296 302 302 301 303 303 302 301 298 292 290 289 288 284 280 278
208 209 211 211 211 217 219 220 217 237 246 245 266 285 283 254 228 250 261 271 276 278 279 287 292 293 294 292 296 299 301 302 302 301 301 300 292 291 292 290 287 284 283
213 210 211 214 214 215 217 217 216 223 234 239 255 264 275 285 314 250 254 260 275 279 281 285 286 286 289 284 282 288 298 299 301 302 301 300 297 293 292 289 287 289 286
219 212 216 218 217 219 221 218 222 227 224 237 242 252 271 288 280 287 256 260 276 274 277 279 277 280 281 279 277 288 296 297 300 300 299 299 297 294 293 290 286 287 289
218 217 224 225 222 222 225 220 220 221 222 232 232 232 243 257 256 267 280 284 278 268 269 269 271 273 276 279 273 285 290 292 296 296 295 295 294 294 294 291 286 286 286
225 222 221 226 229 227 226 223 224 222 224 231 235 232 232 237 240 250 266 280 284 280 274 266 262 267 273 277 280 292 290 288 293 294 294 294 294 294 295 293 290 288 287
238 230 226 225 227 232 233 225 222 225 225 228 232 237 241 248 252 252 261 274 280 283 274 259 253 261 268 275 279 293 288 289 291 294 296 294 292 292 293 294 293 290 287
247 238 232 233 231 228 229 224 221 224 227 232 236 238 243 245 244 245 253 266 279 276 266 265 254 252 260 275 287 286 283 286 292 294 296 296 293 292 292 293 294 295 294
257 241 236 235 234 229 228 225 225 226 226 232 238 239 243 245 243 246 249 252 262 277 279 265 260 256 271 279 284 283 284 290 290 290 293 294 293 291 292 293 293 293 292
259 245 240 240 238 235 229 227 234 229 231 237 238 237 240 241 241 241 242 246 250 261 271 276 275 283 281 281 282 281 282 287 279 282 287 288 289 289 289 289 290 290 291
256 254 247 244 242 238 232 230 235 232 234 241 241 241 243 242 242 241 242 244 245 248 262 277 281 284 280 281 282 283 284 280 277 275 283 285 286 287 289 288 287 287 288
258 256 249 245 244 240 236 234 238 239 239 242 242 242 245 244 244 244 243 244 247 248 257 272 279 279 274 277 282 284 284 281 281 280 280 281 282 283 285 286 285 284 284
260 261 253 249 249 245 241 240 242 242 243 244 243 243 245 244 244 244 246 248 250 253 256 265 274 275 275 277 284 282 282 280 281 282 280 277 278 282 283 283 283 284 283
257 258 258 259 258 255 247 246 246 246 249 250 249 248 247 245 247 247 248 249 251 253 255 260 267 272 273 276 276 281 285 282 283 283 277 279 280 279 276 278 280 280 281
260 258 258 262 262 257 252 252 251 251 253 255 255 254 251 253 255 254 254 255 253 252 256 259 264 269 268 270 267 274 279 290 284 273 281 279 279 274 270 270 272 275 277
270 259 253 256 260 260 263 257 258 255 253 253 257 258 256 252 255 255 257 259 255 253 254 256 261 263 268 268 272 270 275 283 285 273 286 283 276 271 270 270 272 273 272
275 270 262 260 262 267 268 260 257 257 256 255 257 261 262 261 260 263 261 258 255 253 253 255 261 264 270 267 268 267 265 270 275 292 289 281 274 272 274 272 276 273 273
265 264 265 262 264 271 271 267 263 253 257 258 259 261 265 269 266 272 271 266 264 260 258 255 261 267 270 268 258 265 273 278 283 275 264 274 277 275 281 274 270 269 273
266 266 267 266 267 275 275 271 267 258 259 264 265 263 264 269 275 269 265 268 273 273 269 263 265 269 270 265 259 258 258 265 277 272 241 264 279 287 280 270 272 276 276
266 272 271 269 270 276 279 274 266 257 262 266 266 266 264 271 278 265 259 262 268 274 278 277 267 264 260 256 244 240 245 251 269 272 227 254 273 292 287 269 280 284 280